Theta_e
316 316 318 317 318 305 311 311 306 309 316 313 308 309 308 308 305 303 312 309 311 315 316 319 320 320 321 321 321 322 324 323 336 332 332 332 333 333 335 338 339 345 347 349 355 352 346 346 349 351 354 353 353 353 351 353 353 354 353 353 353 351 353
316 319 318 318 317 317 313 306 310 316 317 315 310 301 308 303 300 302 306 304 306 307 304 319 318 317 318 320 320 320 324 325 324 326 334 334 339 338 340 341 342 345 348 352 350 349 346 347 350 351 353 353 354 352 351 353 353 351 352 352 351 351 352
315 318 317 314 317 318 313 311 317 308 303 302 310 306 298 298 299 301 305 307 306 308 309 314 315 316 317 320 323 321 321 322 324 324 338 342 342 344 342 339 340 340 345 346 349 347 346 349 350 354 354 353 353 351 352 352 351 351 352 349 352 354 354
315 315 313 305 310 315 317 317 313 315 310 308 306 306 307 306 299 300 302 305 304 311 312 314 315 319 322 319 320 319 319 321 324 328 336 339 342 341 338 337 339 338 343 345 346 346 346 347 348 353 351 348 346 348 352 352 352 352 352 352 354 354 352
314 307 311 308 310 308 309 309 309 310 309 313 312 310 306 303 301 301 300 299 307 313 317 317 318 319 321 318 320 327 322 323 322 327 329 335 340 342 338 344 343 342 338 346 349 350 347 351 350 349 348 346 345 345 346 347 350 348 348 350 352 353 354
308 310 314 313 313 313 310 309 307 308 307 305 302 302 311 308 304 300 301 299 309 314 320 323 318 320 319 320 320 326 323 321 332 330 330 336 337 341 340 345 342 336 340 346 344 346 350 348 345 343 347 345 343 343 344 344 345 344 343 348 352 351 353
308 312 316 317 317 316 314 312 309 312 311 310 306 298 304 308 307 309 307 302 307 318 321 321 321 319 318 321 320 321 321 324 323 326 323 339 347 342 335 336 341 342 344 342 345 349 350 347 345 345 346 342 339 341 344 343 344 343 343 344 349 353 350
313 315 316 317 317 315 312 313 313 312 309 310 308 307 310 306 307 303 304 302 305 317 331 325 321 328 320 322 320 321 320 322 326 325 326 342 346 349 343 339 335 347 351 351 349 350 350 347 347 345 343 343 342 342 343 341 342 341 342 344 345 351 351
308 309 311 312 315 314 311 310 312 313 312 312 311 312 319 307 307 306 303 298 304 316 343 330 322 319 318 319 320 323 322 328 323 333 334 351 349 353 347 347 352 343 345 347 346 348 348 348 347 347 345 344 342 344 342 339 340 341 343 348 348 350 348
298 298 298 301 305 308 311 312 312 312 310 311 309 304 312 301 313 316 305 305 314 320 327 321 321 320 324 321 321 320 326 328 324 332 330 341 354 359 352 352 347 341 344 343 346 347 346 345 345 349 347 344 344 345 343 340 337 341 344 338 339 345 346
303 307 314 313 313 310 306 309 310 310 313 313 312 313 311 303 309 308 309 313 313 315 316 318 318 322 318 319 323 324 325 329 343 336 346 345 346 356 349 359 352 354 350 348 346 350 348 346 349 348 346 344 342 344 342 338 342 348 347 344 343 341 343
313 311 313 312 312 310 310 309 309 311 311 312 310 307 305 321 311 304 312 314 312 313 316 319 321 321 325 323 327 324 327 331 326 336 346 342 343 341 345 351 355 353 352 345 345 346 351 348 348 348 346 344 343 340 337 336 341 343 346 346 346 346 346
311 311 311 312 312 311 312 312 311 310 310 310 308 311 312 318 309 305 319 323 317 315 316 317 320 323 326 320 321 323 325 324 338 338 330 329 331 339 338 344 354 340 347 348 346 346 348 348 347 346 345 343 342 339 335 335 338 343 349 351 350 346 346
309 310 311 312 311 311 312 311 311 311 311 310 310 310 311 311 318 317 322 322 315 314 316 318 321 326 324 323 326 326 326 321 335 329 329 322 326 332 336 344 346 347 349 344 345 347 348 348 347 345 342 341 339 335 335 340 339 344 351 350 350 350 346
308 311 312 311 311 310 309 311 312 312 311 311 312 311 311 313 312 312 312 321 317 318 329 325 326 340 332 332 321 321 332 328 322 325 324 329 327 331 340 346 346 353 345 342 344 346 348 347 347 344 343 341 342 336 338 339 340 342 348 349 351 349 343
306 309 309 310 311 310 309 309 310 310 310 309 310 309 312 312 314 318 314 316 313 318 323 321 325 325 327 325 328 326 326 323 326 329 328 329 337 339 344 340 340 340 345 345 347 348 349 347 347 346 348 344 346 339 338 339 341 346 346 347 346 347 345
304 309 310 309 309 308 305 306 309 311 312 312 313 313 315 315 314 314 309 308 320 324 325 322 323 319 323 325 322 323 336 341 332 334 334 333 333 338 344 352 346 342 344 346 351 349 348 346 346 345 347 344 342 343 342 342 342 343 343 346 344 346 347
305 308 309 310 306 298 300 313 314 314 311 312 310 310 313 316 318 314 316 319 325 321 321 319 320 320 325 329 335 337 334 332 336 331 331 330 329 330 332 336 343 350 345 341 347 350 350 348 345 343 343 345 344 343 342 343 343 342 343 342 342 343 345
304 308 308 303 298 299 316 315 315 316 315 314 313 313 315 315 318 317 316 318 319 322 320 322 322 323 326 328 329 324 324 339 335 336 328 336 338 337 338 344 339 350 352 350 349 351 350 348 345 342 340 341 344 340 337 339 343 339 342 342 344 346 346
307 305 303 295 298 313 316 316 317 319 317 316 314 314 313 315 315 320 316 319 319 326 322 321 327 332 324 324 338 336 329 327 327 323 326 327 327 330 335 340 350 351 352 351 346 347 348 348 345 343 343 340 336 333 338 339 338 344 343 343 345 344 345
302 303 302 302 315 309 313 314 315 315 314 314 312 307 312 319 320 319 321 320 320 320 320 321 323 324 322 322 322 327 328 334 327 327 328 325 328 333 347 339 344 361 358 354 349 352 350 346 344 343 340 335 335 334 332 335 343 340 342 342 341 341 343
308 303 301 301 301 298 306 317 317 319 319 318 318 317 311 319 319 319 321 321 322 321 321 322 324 327 322 315 320 324 326 328 330 328 328 326 330 332 335 358 352 362 367 362 359 353 351 347 340 339 337 335 336 336 334 337 334 335 338 338 341 343 341
307 304 300 299 299 304 316 315 316 319 320 318 317 313 306 321 320 320 319 318 322 322 321 323 324 320 313 317 321 326 327 327 327 328 328 328 328 335 335 338 336 342 356 364 359 359 348 337 339 338 337 337 336 337 336 331 331 334 338 340 340 341 342
306 306 301 300 306 305 315 315 316 318 319 318 314 302 304 323 319 320 321 319 321 322 327 324 322 320 312 313 322 322 324 326 330 333 344 341 335 342 347 341 341 353 370 365 347 342 339 341 343 342 339 335 334 336 332 333 331 335 337 339 341 343 342
305 304 304 306 309 317 316 316 318 318 319 317 306 299 309 320 323 322 327 321 322 325 326 324 316 325 323 324 326 323 323 323 326 328 328 329 330 330 328 335 351 349 361 353 344 343 342 342 339 338 335 334 336 338 339 337 335 338 340 341 345 346 346
303 305 302 303 307 317 316 320 318 320 314 304 304 316 327 326 324 324 320 320 322 325 328 325 327 327 323 323 322 323 323 322 327 328 326 326 325 329 345 350 357 353 345 351 346 343 344 341 338 338 339 342 340 339 339 337 343 349 349 348 347 346 346
306 307 304 300 296 320 320 318 317 321 315 319 321 326 323 322 323 322 323 322 326 324 327 326 334 327 321 322 323 323 324 323 326 335 331 335 333 332 342 344 342 339 336 344 341 341 339 337 338 345 341 345 343 347 340 342 346 346 347 347 346 346 347
307 306 304 300 312 318 321 321 312 318 319 324 326 323 321 324 323 323 324 325 329 327 328 329 326 325 326 331 330 329 330 329 328 334 337 338 344 334 327 335 340 336 342 344 342 339 337 338 347 353 335 341 346 353 347 346 348 347 347 352 353 354 353
311 307 310 316 322 319 321 322 321 322 324 325 326 325 321 322 323 328 325 328 326 329 329 329 329 324 326 325 323 323 325 327 326 336 336 336 331 332 334 323 337 338 338 339 338 343 350 342 341 342 346 350 351 344 341 339 337 343 340 339 349 346 346
320 322 320 318 319 320 318 319 321 321 322 323 325 324 323 325 325 327 324 324 325 327 333 325 327 326 326 326 323 323 324 325 327 342 335 337 337 329 333 343 346 338 335 340 336 338 342 341 339 340 344 346 344 347 345 345 343 341 347 343 342 339 347
311 303 322 316 316 318 318 318 320 321 321 321 323 325 326 324 324 325 326 328 328 325 330 329 330 326 323 323 324 329 332 334 342 338 343 339 333 329 331 334 335 336 335 335 337 336 335 337 338 341 346 344 351 347 343 343 342 346 349 345 350 347 347
310 314 318 320 317 319 319 318 318 318 320 321 322 324 326 328 327 327 326 325 324 324 322 330 329 327 325 326 336 330 330 331 336 331 332 337 342 343 340 338 336 333 333 336 334 332 337 338 338 338 337 340 343 344 337 336 338 343 345 345 341 341 339
314 318 318 318 319 317 317 318 320 321 322 321 321 322 322 321 321 323 324 324 322 321 322 331 332 328 329 330 331 324 331 333 332 335 334 336 339 346 343 339 334 332 333 336 337 336 333 336 339 337 336 332 331 337 338 335 345 341 340 341 342 337 336
309 312 314 318 312 313 314 316 318 321 323 323 321 321 320 320 321 322 321 322 325 325 327 325 324 330 334 330 335 327 333 332 334 337 339 341 341 341 341 341 339 340 343 339 339 336 340 342 336 338 338 333 325 323 331 333 337 338 343 336 331 328 332
305 311 314 319 319 318 317 317 318 321 323 323 320 320 320 320 321 320 320 319 323 325 328 330 327 335 337 336 334 330 331 334 337 337 336 336 334 335 339 338 340 341 343 342 340 341 340 337 334 335 333 329 336 329 338 339 334 338 335 343 336 327 330
311 314 314 316 316 314 316 318 319 320 323 321 319 319 320 320 320 320 320 321 321 323 326 327 328 330 333 331 333 332 329 330 335 336 334 335 337 333 335 337 338 339 338 338 338 340 338 336 335 336 328 330 333 330 336 333 337 340 337 338 335 329 327
310 314 314 315 315 316 317 319 319 319 323 321 319 318 319 319 319 319 320 323 322 320 322 324 324 330 331 331 334 336 333 334 333 333 332 330 331 332 329 330 335 337 338 336 334 334 334 334 335 333 333 334 336 331 337 334 336 337 336 336 328 327 331
Wind_Speed
17 17 13 12 11 12 12 12 14 12 9 14 10 8 10 10 7 9 3 7 8 1 10 12 12 10 8 5 7 9 8 8 6 10 12 14 14 13 14 16 15 16 15 13 10 10 11 13 12 10 10 12 12 12 12 12 11 10 8 8 6 6 6
13 17 16 15 13 13 9 13 12 11 14 10 8 9 4 7 9 7 10 9 5 8 5 9 10 11 12 9 8 9 9 9 7 8 11 12 8 11 12 14 14 15 15 14 12 12 15 15 15 9 13 13 11 12 12 12 12 11 9 8 7 6 6
16 16 17 17 12 18 11 9 10 11 11 13 7 7 4 7 6 7 7 7 8 6 1 10 13 11 13 12 8 4 7 11 8 8 7 11 10 4 6 12 13 13 14 16 15 15 17 15 15 8 13 12 11 10 10 12 11 11 10 8 7 6 5
16 15 14 15 12 13 17 10 10 12 11 7 6 9 8 5 7 6 8 9 5 1 4 8 15 8 5 9 9 7 3 4 11 7 10 13 11 12 10 10 14 16 14 17 19 21 21 17 16 11 15 15 16 12 11 10 10 9 9 8 7 6 5
14 14 12 15 14 14 14 13 10 6 8 9 10 9 9 8 8 6 5 6 2 2 2 11 9 6 6 4 4 6 3 5 6 13 8 11 13 11 12 9 11 11 12 11 8 11 15 14 13 13 16 16 15 13 13 13 11 11 10 8 7 6 5
13 13 14 16 17 15 14 13 11 11 11 11 8 8 9 9 5 4 6 7 5 7 6 8 10 6 7 5 1 3 7 9 3 5 8 9 7 9 15 13 16 16 12 13 13 14 11 13 15 17 15 13 14 13 14 14 14 13 13 9 7 7 4
15 16 14 16 16 13 14 11 13 13 10 9 8 6 7 6 9 10 8 6 3 6 8 7 7 10 8 10 9 4 3 1 4 6 4 6 5 5 9 12 16 15 17 15 15 18 16 14 12 9 11 14 13 15 15 14 14 15 14 12 9 7 6
14 16 15 17 16 16 15 14 13 12 12 11 11 9 5 7 9 10 6 6 6 5 5 6 9 7 5 6 4 2 6 2 3 4 4 4 5 6 5 7 8 13 13 15 11 10 12 12 12 15 14 13 14 15 16 15 17 15 13 12 11 9 7
7 11 13 14 17 13 12 12 15 16 15 15 15 12 5 9 9 10 6 7 6 8 0 5 8 6 8 8 11 7 4 3 3 3 5 1 1 4 5 6 7 16 13 13 16 17 13 12 11 13 16 16 13 12 13 14 13 14 8 7 12 11 9
10 9 10 12 14 16 12 16 17 22 23 21 13 12 7 7 4 6 6 8 5 6 5 4 2 2 3 8 12 4 9 7 5 1 1 5 3 3 6 6 11 20 18 17 15 13 12 13 13 11 13 12 10 10 10 10 10 8 8 8 8 7 11
11 11 5 10 10 14 15 15 17 17 16 17 15 8 6 8 5 9 6 8 7 10 9 6 7 5 7 3 5 5 3 4 2 8 3 4 5 1 3 3 6 8 15 17 17 14 14 14 12 11 12 12 11 10 9 8 7 7 9 9 8 7 9
13 12 3 7 12 13 14 15 16 18 18 15 15 11 10 5 7 9 6 14 13 10 10 10 8 8 7 8 5 3 5 4 7 4 3 5 6 6 5 4 1 3 9 14 13 12 10 13 13 11 10 11 11 11 10 7 8 10 8 10 9 9 8
17 20 18 14 13 14 15 16 16 18 19 20 21 14 17 9 8 10 4 5 11 11 15 15 13 9 9 11 10 8 5 6 3 6 7 7 6 8 11 8 6 11 10 12 12 13 12 14 14 13 11 11 11 11 11 10 8 9 8 8 8 10 9
15 19 22 20 20 15 16 17 17 18 19 20 21 21 19 16 8 7 7 7 8 7 7 5 3 2 4 5 7 7 6 7 5 9 8 12 8 8 11 10 12 11 11 12 12 13 14 16 15 14 13 13 14 15 13 12 10 8 6 7 6 6 8
16 18 18 17 17 18 17 18 20 21 19 20 20 21 20 18 17 17 15 11 9 8 4 6 2 1 1 2 5 7 5 5 9 8 8 6 10 8 7 8 6 6 12 14 15 15 14 16 17 15 14 13 13 14 13 13 11 9 8 8 6 6 8
12 13 15 18 20 22 22 21 21 18 17 15 14 13 13 15 10 6 3 6 9 7 8 7 3 5 5 4 6 9 9 11 9 8 7 9 7 5 4 9 10 12 15 17 16 14 15 16 15 13 12 12 11 13 13 11 11 10 9 8 8 8 8
13 15 19 23 22 18 15 19 20 18 17 16 16 15 14 14 12 6 7 8 4 4 6 5 4 4 2 3 2 1 3 5 6 5 5 7 9 7 5 3 9 13 14 13 11 11 14 15 14 14 13 13 12 12 11 10 11 10 11 10 10 7 6
9 16 18 13 10 12 11 5 12 13 17 16 18 18 11 5 6 3 3 4 6 3 3 5 2 3 1 4 3 2 3 4 4 7 7 7 8 9 8 8 5 7 8 10 15 18 16 15 16 16 15 14 13 12 11 9 9 9 9 10 10 10 9
10 10 11 12 13 11 6 10 15 16 15 14 16 17 8 7 6 5 7 5 4 4 1 3 1 1 3 5 5 4 7 4 4 4 6 5 5 6 7 6 7 4 8 9 11 16 16 17 16 15 13 12 12 11 12 8 5 9 10 12 12 10 9
9 11 10 11 12 2 6 9 10 7 11 12 14 13 1 7 8 10 6 6 3 4 4 3 4 6 4 1 1 7 11 11 9 7 6 7 8 8 7 6 5 5 7 11 12 14 15 15 15 15 13 14 14 12 6 6 11 11 11 11 9 8 8
12 11 11 13 3 8 5 7 9 7 6 7 7 9 10 9 6 3 4 7 5 6 7 4 3 3 4 4 6 6 10 4 5 1 6 7 8 5 3 4 5 4 6 11 14 11 11 13 13 12 14 14 12 10 9 15 11 10 10 10 9 9 8
9 10 10 12 11 12 7 6 6 8 11 11 7 5 10 2 6 7 6 7 6 4 4 3 2 8 2 8 2 4 4 3 3 7 4 7 5 5 3 1 4 3 4 7 9 10 13 12 14 14 14 12 11 8 10 8 9 9 9 9 9 9 8
6 12 12 12 12 8 4 10 12 7 5 11 8 4 8 2 5 2 3 7 5 3 5 5 4 2 5 4 6 2 3 3 5 3 3 5 9 1 3 3 5 9 7 6 5 6 12 15 14 14 14 12 10 9 8 10 9 8 8 9 8 9 9
12 10 11 12 8 7 2 8 10 10 10 12 10 9 7 4 6 1 3 9 9 9 5 5 4 3 6 0 4 5 4 2 3 3 1 4 4 2 3 3 7 7 4 3 13 14 14 13 12 9 8 9 9 9 8 7 7 8 9 9 10 8 8
11 11 10 9 8 7 3 7 5 6 4 6 10 8 1 4 3 2 1 5 9 6 3 3 8 3 3 4 4 2 6 7 2 5 2 8 2 3 7 5 5 6 7 11 15 16 15 14 15 11 8 8 6 6 6 6 7 7 9 9 8 7 7
12 12 13 12 10 2 4 4 9 8 3 11 8 3 5 5 7 7 3 3 0 4 5 4 3 1 3 3 7 5 4 7 4 4 5 7 7 5 5 7 4 4 9 5 12 14 12 12 12 10 8 6 7 7 6 8 6 5 6 6 6 6 7
10 11 10 8 6 4 13 7 6 13 8 5 2 2 4 2 6 5 4 5 7 6 7 5 3 5 8 10 10 13 9 10 12 4 4 6 6 3 8 8 9 13 3 7 1 11 14 13 11 10 11 6 6 5 8 8 6 6 7 8 7 6 6
2 3 3 2 7 6 15 11 4 6 7 5 2 5 3 2 3 4 4 3 8 6 4 4 5 7 7 4 6 11 8 6 12 7 8 4 2 9 5 9 9 16 12 11 12 13 14 12 6 3 9 2 1 4 2 5 6 5 4 1 1 3 3
2 3 5 4 4 4 6 7 4 3 8 8 7 7 4 2 5 5 5 4 3 6 8 8 8 7 6 8 10 13 12 8 10 2 4 3 4 5 5 10 10 9 16 14 11 7 3 9 7 7 6 5 1 4 5 7 7 5 5 7 3 3 4
5 4 5 1 1 5 9 12 12 11 11 9 9 10 8 6 5 0 5 5 6 6 5 7 6 8 8 10 12 13 12 10 9 5 7 6 7 7 3 5 4 7 5 8 8 10 7 10 9 8 8 5 5 3 3 4 2 3 1 1 5 5 4
2 1 5 9 2 3 9 8 9 10 10 9 7 7 6 5 4 6 3 4 4 4 4 6 7 9 10 11 11 9 11 6 5 4 8 8 16 19 19 19 19 15 12 10 14 12 11 8 10 8 9 7 4 4 5 4 5 3 2 3 2 2 3
6 6 8 12 2 10 10 7 6 7 6 7 7 6 6 6 8 5 5 3 8 7 8 5 8 11 10 8 5 8 4 9 11 14 12 9 9 10 10 11 12 14 17 11 9 7 7 6 10 8 8 4 3 4 5 6 4 6 4 2 2 4 6
4 10 7 12 11 12 11 9 6 4 4 5 6 6 7 8 9 8 8 9 9 8 10 5 6 8 7 9 6 10 8 5 7 10 12 11 9 9 10 9 11 13 16 13 5 6 7 9 8 5 5 1 1 4 6 6 5 7 3 3 5 7 4
4 2 4 6 6 2 5 7 6 5 4 5 5 5 7 8 9 9 10 9 10 11 13 11 9 8 5 4 7 3 11 11 11 9 8 9 10 8 7 9 11 9 11 11 10 8 6 3 5 4 3 6 6 6 8 5 4 2 3 2 4 5 3
6 3 8 6 6 8 5 5 5 4 4 4 5 5 7 8 8 9 10 10 10 11 13 11 10 3 4 8 10 8 8 7 7 12 11 9 9 8 6 8 9 10 10 10 9 6 7 9 8 6 7 7 5 6 4 6 5 3 3 3 3 4 3
11 7 6 6 6 6 2 5 3 4 4 3 4 7 7 9 8 9 9 9 9 9 9 11 8 8 4 4 10 7 7 6 10 11 10 7 7 11 10 11 10 10 11 12 11 8 8 8 8 6 7 5 3 7 5 3 4 5 4 3 3 4 5
7 6 7 7 7 6 5 6 5 4 3 6 6 7 9 9 9 9 9 7 9 10 9 9 8 8 6 4 3 7 5 7 8 7 9 9 11 8 10 10 11 8 9 9 10 11 11 10 8 8 7 5 5 8 5 5 4 4 4 5 6 6 4
Wind_Direction
172 215 217 236 170 208 173 206 221 235 225 198 216 234 258 277 272 248 271 221 220 146 178 172 173 158 163 139 154 182 179 186 156 176 191 203 198 205 186 183 181 172 173 168 150 139 142 181 212 211 162 157 155 156 158 158 157 156 165 167 171 179 160
197 200 227 239 175 244 179 204 215 231 263 254 220 243 251 255 251 232 205 227 217 171 276 129 151 177 152 165 176 214 166 165 193 201 189 194 204 199 189 175 172 166 167 154 155 165 166 191 203 197 158 158 157 157 159 158 158 161 168 169 176 171 166
195 194 215 236 215 204 245 203 178 219 187 228 273 345 258 263 239 272 256 265 258 253 166 154 146 168 160 165 163 159 158 180 190 206 156 184 185 208 182 162 181 176 170 169 173 176 180 186 199 191 157 153 150 153 162 160 164 164 168 170 174 168 163
184 191 201 219 215 202 227 240 208 199 262 261 218 183 250 253 271 227 238 224 244 20 164 177 141 192 158 133 145 157 250 198 173 192 167 184 191 196 203 180 187 179 171 181 177 184 183 183 187 174 158 159 161 160 160 162 162 166 168 170 166 160 162
186 201 187 219 209 203 204 218 231 239 243 245 222 181 215 221 246 248 269 247 132 79 30 132 134 109 115 149 147 142 164 283 222 170 172 178 197 202 194 166 163 167 167 168 167 189 184 169 167 163 166 168 166 165 169 170 167 174 171 172 162 166 161
214 211 188 219 218 209 208 203 217 231 213 227 223 223 184 226 238 258 260 265 122 92 85 91 127 145 158 151 332 135 179 186 289 3 161 176 200 188 196 181 166 172 148 141 176 213 195 172 170 186 168 172 169 174 173 176 178 180 179 173 165 159 167
217 213 189 203 242 230 221 197 208 216 232 232 216 230 189 202 230 241 241 277 57 132 126 142 136 163 201 157 151 218 196 1 144 167 241 173 172 210 219 192 184 151 141 181 188 195 185 168 165 165 161 175 183 184 177 181 177 184 182 174 162 155 161
221 195 201 193 207 240 232 211 217 204 223 232 242 226 219 233 221 228 223 228 147 187 120 171 124 70 75 96 97 85 304 173 156 110 10 347 173 183 207 255 169 148 145 143 137 168 176 171 171 175 178 186 190 183 180 182 182 181 186 168 165 160 163
204 200 187 203 184 210 241 229 203 221 219 220 238 258 199 228 237 245 218 231 188 126 151 78 126 157 237 187 158 167 229 129 228 253 151 260 320 149 201 226 119 134 140 168 167 173 181 177 184 188 182 187 180 167 176 183 183 178 179 144 158 164 171
184 197 199 207 199 197 209 238 226 200 213 209 209 223 203 229 203 245 241 229 104 118 115 98 72 264 32 345 335 315 177 174 191 324 272 159 191 211 189 207 145 163 166 178 180 182 184 187 189 182 175 168 159 143 160 171 186 175 145 136 137 171 181
215 205 209 212 237 181 211 205 234 250 231 230 227 217 206 202 174 202 195 243 148 163 145 189 196 195 224 211 212 223 328 326 165 166 185 173 167 30 305 229 201 150 154 168 178 173 182 187 180 172 162 157 144 140 157 178 175 144 146 144 162 179 204
262 250 207 199 226 237 198 211 218 229 254 250 241 231 229 159 162 211 186 198 216 178 189 194 218 213 169 175 185 287 314 299 296 309 188 178 163 184 218 265 92 113 140 178 178 178 166 173 163 157 151 149 141 146 157 179 170 148 158 157 169 185 194
226 256 266 257 243 224 232 229 225 221 214 241 255 254 245 223 202 222 143 188 208 204 198 187 203 222 190 178 184 184 228 296 252 219 231 231 217 184 197 190 162 169 191 172 183 181 173 162 162 157 152 147 146 153 158 191 177 163 166 166 170 186 182
217 223 241 246 250 250 229 231 239 233 226 218 226 247 255 242 218 228 159 171 232 240 253 263 255 79 332 39 12 348 321 290 281 280 288 292 273 203 195 188 183 172 166 180 191 186 177 168 165 163 161 162 163 168 171 178 164 167 165 175 180 163 155
237 227 221 237 255 259 249 235 240 240 230 226 222 228 234 242 245 232 216 160 190 197 205 243 215 73 72 12 308 304 316 302 288 293 290 254 254 266 177 150 151 147 160 191 196 189 178 171 168 167 168 168 167 167 170 168 168 170 170 175 163 158 156
242 241 240 233 231 235 242 245 239 240 254 246 233 231 225 234 229 223 280 193 203 182 184 212 176 222 213 172 176 217 218 240 237 238 250 273 294 287 202 182 179 188 190 183 186 177 171 167 167 162 158 162 161 168 180 172 169 166 167 165 161 171 184
239 242 239 234 230 235 247 250 241 230 224 232 238 241 235 227 234 168 209 258 278 70 65 0 341 331 174 217 253 349 3 25 348 326 312 312 309 305 310 276 204 192 176 172 162 167 167 168 163 167 163 174 181 183 183 174 174 167 169 154 159 176 193
233 237 253 274 280 249 240 302 294 275 266 256 252 244 243 30 207 141 104 89 67 71 128 188 190 208 10 9 36 343 293 278 253 253 264 275 273 279 282 277 259 196 183 173 173 176 174 174 174 175 179 177 188 192 180 164 167 169 172 164 163 183 188
250 257 268 257 250 255 316 270 258 255 270 291 283 263 192 154 117 107 130 143 157 110 160 93 83 48 260 209 227 266 276 276 283 291 283 262 262 266 273 278 268 232 183 176 170 171 173 175 177 179 180 180 172 174 166 166 153 203 183 161 171 175 163
252 247 230 244 238 303 314 318 298 304 325 320 341 336 1 132 157 137 185 175 205 268 120 173 215 232 194 88 320 248 234 218 222 246 260 260 255 243 232 248 253 231 187 182 182 183 182 179 172 176 173 162 163 161 151 95 221 196 166 158 154 151 172
248 234 234 246 59 258 260 277 268 299 284 301 334 318 317 333 354 316 106 137 187 184 209 172 262 62 53 321 274 346 323 172 132 282 281 284 284 286 205 228 255 233 204 189 190 177 164 164 166 163 146 146 150 147 150 211 190 152 149 149 154 174 176
257 264 249 247 236 247 232 278 302 295 288 293 270 226 253 313 305 254 161 133 176 181 100 151 190 90 254 259 42 326 343 348 195 176 235 275 285 288 342 49 294 265 199 190 176 167 154 146 140 146 147 141 157 182 201 175 162 148 154 158 170 175 179
234 232 249 243 249 249 239 233 237 226 321 291 330 332 279 160 239 199 183 191 150 193 175 161 109 239 256 275 108 67 238 259 293 318 36 334 309 274 134 261 240 237 226 208 182 120 137 144 145 144 145 151 166 193 189 170 161 161 161 172 175 182 185
223 233 230 241 239 244 81 322 255 245 235 245 258 250 234 103 231 316 228 245 175 160 193 203 181 192 261 301 3 351 350 73 165 105 32 258 255 303 58 35 321 300 250 114 112 128 143 135 132 124 143 162 182 187 172 159 163 175 177 176 181 182 188
232 236 255 261 255 256 253 261 330 268 209 228 227 213 234 71 295 173 19 125 105 93 158 173 251 181 261 327 289 322 333 312 245 128 239 267 231 216 239 206 205 215 204 154 156 148 149 149 131 136 178 183 192 177 162 168 185 187 174 174 176 176 180
237 233 235 240 256 105 313 305 306 327 183 209 223 53 269 359 349 81 278 173 239 233 188 196 267 292 193 233 289 299 270 295 287 158 273 282 267 248 116 83 28 359 351 153 138 128 135 138 134 158 179 185 165 173 174 189 188 148 153 161 170 181 191
234 235 237 243 245 30 295 311 301 27 354 1 325 15 44 209 62 346 353 350 66 351 348 322 354 331 315 326 330 322 329 309 295 234 217 220 221 143 99 80 87 84 357 337 68 134 149 150 176 170 158 137 123 149 193 193 176 166 167 166 177 190 203
14 355 300 23 7 349 29 28 41 101 114 202 30 315 333 347 349 41 341 30 9 330 344 342 319 288 298 339 311 300 285 250 275 237 202 177 16 141 147 139 149 158 177 189 180 165 179 165 154 103 128 101 338 116 51 8 14 11 7 342 128 202 174
141 163 170 172 304 3 58 62 133 101 76 48 33 25 65 356 45 29 312 2 18 1 347 334 325 319 317 311 302 287 285 265 264 200 77 105 290 252 169 192 174 184 173 190 167 172 80 78 83 83 75 104 139 55 65 35 19 13 352 322 309 336 313
98 21 44 276 96 13 68 49 37 49 53 51 39 34 49 44 41 349 295 353 352 326 336 322 327 315 310 294 295 299 298 279 268 152 152 188 229 245 360 332 203 186 179 135 111 77 90 113 110 103 111 112 106 158 84 74 69 302 35 307 305 294 270
320 336 330 336 299 216 85 60 54 49 38 42 34 39 29 37 351 20 46 17 0 304 282 268 278 283 288 286 281 274 283 316 36 48 33 53 56 44 31 26 30 19 10 34 88 110 105 116 112 99 77 65 70 100 104 152 226 207 183 240 259 331 302
200 185 201 215 171 71 69 71 65 53 48 45 39 30 37 14 33 353 0 300 250 270 272 281 284 276 278 292 317 324 24 71 51 52 53 47 45 65 73 70 82 79 71 53 42 40 57 80 95 102 105 118 164 146 175 225 169 173 194 177 258 265 251
130 152 185 186 127 84 85 83 75 56 26 45 44 30 35 27 23 8 339 356 330 313 298 278 269 285 297 309 322 328 354 53 87 101 100 90 97 95 86 89 101 112 115 108 66 55 44 33 24 60 66 18 116 135 213 207 151 152 173 213 224 246 235
65 352 43 281 128 111 75 57 54 43 33 15 42 26 32 28 14 10 1 354 346 335 325 312 304 330 16 9 321 28 84 91 92 87 88 94 88 73 93 111 109 100 99 105 125 131 129 127 101 61 49 58 78 94 81 81 77 160 152 203 224 238 216
138 121 45 25 120 137 59 53 42 20 45 360 24 35 22 17 6 8 358 353 345 339 329 329 322 347 27 21 57 74 76 83 98 102 103 96 92 88 74 81 84 113 116 122 114 108 110 114 130 123 113 109 86 75 63 92 131 146 141 204 207 222 221
69 54 61 35 13 28 334 19 352 36 62 348 1 5 13 360 350 358 347 346 335 325 324 313 309 309 270 159 118 122 116 94 79 103 112 114 110 128 134 123 134 125 128 128 131 135 115 111 108 113 112 108 137 119 105 127 109 127 176 172 211 250 246
75 58 61 24 341 324 317 324 350 304 104 45 356 344 356 341 337 344 324 331 314 314 308 297 300 300 303 310 111 123 157 141 138 134 114 103 113 113 129 127 101 127 134 137 133 130 129 144 145 134 121 102 90 108 122 131 160 159 176 218 220 218 213